Location: Atlantic Beach
(40.5890°N, 73.7290°W)
Time: 06:20:41
(UTC+00:00)

N. Korean satellite - Pass Details

Date: 22 January 2021
Orbit: 451 x 502 km, 97.2° (Epoch: 06 March)

Event Time Altitude Azimuth Distance (km) Brightness Sun altitude
Rises 10:46:57 0° 4° (N) 2,517 10.1 -16.2°
Reaches altitude 10° 10:49:06 10° 356° (N) 1,627 9.1 -15.8°
Maximum altitude 10:52:22 39° 287° (WNW) 705 6.8 -15.2°
Drops below altitude 10° 10:55:34 10° 217° (SW) 1,592 8.9 -14.6°
Sets 10:57:39 0° 209° (SSW) 2,455 10.0 -14.2°
